Regional Weather Roundup
Issued by NWS

Home | Current Version | Previous Version | Text Only | Print | Product List | Glossary On
Versions: 1 2 3 4 5 6 7 8 9 10 11 12 13 14 15 16 17 18 19 20 21 22 23 24 25 26 27 28 29 30 31 32 33 34 35 36 37 38 39 40 41 42 43 44 45 46 47 48 49 50
519
ASUS44 KLIX 300105
RWRLA
LOUISIANA WEATHER ROUNDUP
NATIONAL WEATHER SERVICE NEW ORLEANS LA
800 PM CDT WED OCT 29 2014

NOTE: "FAIR" INDICATES FEW OR NO CLOUDS BELOW 12,000 FEET WITH NO
      SIGNIFICANT WEATHER AND/OR OBSTRUCTIONS TO VISIBILITY.
      SKY/WX - SKY CONDITION AND SIGNIFICANT WEATHER.
      TMP - AIR TEMPERATURE.    DP   - DEWPOINT TEMPERATURE.
      RH  - RELATIVE HUMIDITY.  PRES - PRESSURE.
      HX  - HEAT INDEX.         WCI  - WIND CHILL INDEX.

*  THESE STATIONS ARE NOT NWS OR FAA STATIONS AND ARE NOT UNDER
   NWS QUALITY CONTROL.

LAZ040-048-061>063-065-066-069-300200-
SOUTHEAST LOUISIANA

CITY           SKY/WX    TMP DP  RH WIND       PRES   REMARKS
N.O. AUDUBON     N/A     76  71  83 MISG        N/A
N.O. INTL ARPT CLOUDY    75  67  76 N13       30.04R
N.O. LAKEFRONT CLOUDY    76  70  82 N13       30.04R
N.O. DOWNTOWN* CLOUDY    77  64  65 N6        30.05R
SLIDELL        CLOUDY    73  65  75 N10G20    30.04R
BATON ROUGE    CLEAR     67  62  84 CALM      30.08R
BOOTHVILLE     PTCLDY    74  68  81 CALM      30.03R
BELLE CHASSE   MOCLDY    77  64  64 N6        30.03R
BOGALUSA*        N/A     69  63  81 N5        30.08R
NEW ROADS*     FAIR      64  61  91 N3        30.09R
GONZALES*      FAIR      71  67  89 N5        30.06R
HAMMOND*       NOT AVBL
HOUMA*         PTCLDY    73  67  80 N8        30.04R
PORT FOURCHON* CLOUDY    77  72  83 CALM      30.07R

$$

LAZ041-044-053-054-300200-
SOUTHWEST LOUISIANA

CITY           SKY/WX    TMP DP  RH WIND       PRES   REMARKS
LAKE CHARLES   PTCLDY    67  61  81 NE7       30.09R
LAFAYETTE      PTCLDY    67  62  84 N3        30.09R
PATTERSON      MOCLDY    70  64  83 N7        30.09R
SALT POINT       N/A     72  68  87 N5        30.06R
NEW IBERIA     PTCLDY    68  63  84 N8        30.09R
CHENAULT AIRPK CLOUDY    64  63  94 N3        30.10R

$$

LAZ027-028-300200-
CENTRAL LOUISIANA

CITY           SKY/WX    TMP DP  RH WIND       PRES   REMARKS
FORT POLK      CLEAR     62  53  73 N6        30.11R
ALEXANDRIA INT CLEAR     57  54  89 N3        30.10R
ALEXANDRIA     CLEAR     56  54  93 CALM      30.12R

$$

LAZ001-002-300200-
NORTHWEST LOUISIANA

CITY           SKY/WX    TMP DP  RH WIND       PRES   REMARKS
SHREVEPORT     CLEAR     63  46  54 N5        30.14R
BARKSDALE AFB  CLEAR     59  50  72 NE3       30.15R
DTN SHREVEPORT CLEAR     60  48  64 NE3       30.15R

$$

LAZ014-016-300200-
NORTHEAST LOUISIANA

CITY           SKY/WX    TMP DP  RH WIND       PRES   REMARKS
MONROE         CLEAR     57  47  69 N6        30.15R
TALLULAH       CLEAR     59  46  62 N5        30.13R

$$




USA.gov is the U.S. government's official web portal to all federal, state and local government web resources and services.